GEFSSE_850_meantemp_024.txt.gz
Temperature
18 18 19 19 19 19 18 18 17 17 16 15 15 15 14 14 14 14 14 15 15 15 14 14 14 14 14 14 14 14 14 14 14 15 15 15 16 16 16 16 15 13 13
20 19 19 20 20 20 19 18 18 17 16 15 15 14 14 14 14 14 14 15 15 14 13 13 14 14 14 14 14 14 14 14 14 14 14 14 14 14 15 15 14 13 13
20 19 19 20 20 20 19 19 19 18 17 16 14 14 14 14 14 14 15 15 15 14 14 14 14 14 14 14 14 14 14 14 14 14 14 14 14 14 14 14 14 13 13
20 20 19 19 19 19 19 19 19 19 18 16 15 14 14 14 14 14 15 15 15 15 14 14 14 14 14 14 14 14 13 13 13 13 13 13 13 13 14 14 14 14 13
20 20 19 19 19 19 19 19 19 19 18 16 15 14 14 14 14 14 14 15 15 15 15 15 15 15 14 14 14 14 13 13 13 13 13 13 13 13 13 14 14 14 14
20 20 19 19 19 19 19 19 19 19 18 16 15 14 14 14 14 14 14 15 15 15 15 15 15 15 14 14 14 13 13 13 13 13 13 12 13 13 13 13 13 13 13
20 19 19 18 18 19 19 19 19 19 18 16 15 15 14 14 14 14 14 14 15 15 15 14 14 14 14 14 14 13 13 13 13 13 12 12 12 13 13 13 13 13 13
20 19 18 18 18 18 18 19 19 19 18 17 15 15 14 14 14 14 14 14 15 15 14 14 14 14 14 14 13 13 13 13 13 13 12 12 12 12 12 12 12 12 12
19 19 18 17 17 18 18 18 18 18 18 17 16 15 14 14 14 14 14 14 14 14 14 14 14 14 14 14 13 13 13 13 13 13 12 12 12 12 12 12 13 13 12
18 18 18 17 17 17 18 18 18 18 17 17 16 15 14 14 14 14 14 14 14 14 14 14 14 14 13 13 13 13 13 13 13 13 12 12 12 12 12 12 12 11 11
17 18 18 17 17 17 17 17 17 17 17 17 16 15 14 14 14 14 14 14 14 14 14 14 13 13 13 13 13 13 14 14 13 13 12 12 12 11 11 11 10 10 10
18 17 17 17 17 17 17 17 17 17 17 17 16 15 14 14 14 14 14 14 14 14 14 13 13 13 13 13 13 13 14 14 13 12 12 11 11 11 10 10 10 9 9
19 18 18 17 17 17 17 17 17 17 17 17 16 15 15 15 15 14 14 14 14 14 14 13 13 13 13 13 13 13 13 13 12 12 11 11 10 10 9 9 9 9 9
19 19 18 17 17 17 17 17 17 17 17 17 17 16 15 15 15 15 14 14 14 14 14 13 13 13 13 13 13 13 13 13 12 11 10 10 10 9 9 9 9 9 9
19 19 18 18 17 17 17 16 16 16 16 17 16 16 16 15 15 14 14 14 13 13 13 13 13 13 13 13 13 13 13 12 11 10 10 10 9 9 9 8 8 8 9
18 19 19 18 18 17 17 17 16 16 16 16 16 16 16 15 15 14 13 13 13 13 12 12 12 12 13 13 13 13 12 12 11 10 10 9 9 9 8 8 8 8 8
19 19 18 18 18 18 18 17 17 16 16 15 15 15 15 14 14 13 13 13 13 12 12 12 12 13 13 13 13 12 12 11 11 10 9 9 9 8 8 8 8 8 8
19 19 18 18 18 18 18 18 17 16 16 15 15 15 14 14 13 13 13 13 12 12 11 12 12 12 13 13 12 12 11 11 10 9 9 8 8 8 8 8 8 8 7
19 19 19 18 18 18 18 18 17 17 16 15 15 14 14 13 13 13 13 12 12 11 11 11 12 12 12 12 12 12 11 10 9 9 8 8 8 8 8 7 7 7 7
19 19 19 18 18 18 18 17 17 17 16 15 15 14 14 13 13 13 12 12 12 11 11 11 12 12 12 12 12 11 10 9 9 8 8 7 7 7 7 7 6 6 6
18 18 18 18 18 18 17 17 17 17 16 16 15 14 14 14 13 13 12 12 11 11 11 11 12 12 11 11 11 11 10 9 8 8 8 7 7 6 6 6 6 5 5
18 18 18 18 18 18 17 17 17 17 17 17 16 15 14 14 13 13 12 12 12 11 11 11 11 11 11 11 11 11 10 9 8 8 7 7 7 6 6 5 5 5 5
17 18 18 18 18 18 17 17 17 17 16 16 15 15 14 14 13 13 13 12 12 11 11 11 11 11 11 11 11 10 10 10 9 8 7 7 6 6 5 5 4 4 4
17 17 17 17 17 17 17 17 17 17 16 16 16 16 15 14 14 13 13 12 12 11 11 11 11 11 11 11 10 10 9 9 9 8 7 7 6 6 5 5 4 4 4
17 17 17 17 17 17 17 17 17 17 17 17 16 16 15 15 14 13 13 12 12 11 11 11 11 11 10 10 10 9 9 8 8 7 7 6 6 5 5 4 4 4 3
16 16 16 16 16 16 16 16 16 16 16 16 16 15 15 14 13 13 12 12 12 11 11 11 10 10 10 10 9 9 8 7 7 6 5 5 4 5 4 4 4 3 2

GEFSSE_850_meantemp_030.txt.gz
Temperature
20 19 17 17 17 16 16 16 15 16 16 16 16 15 15 15 15 15 15 15 15 14 14 14 14 14 14 14 14 14 14 14 14 15 15 15 15 15 15 15 14 13 13
22 19 18 18 17 17 16 16 15 15 15 15 15 15 15 15 15 15 15 15 14 14 14 14 14 14 13 13 14 14 14 14 14 14 14 15 15 15 15 15 14 13 13
21 20 19 18 17 17 17 17 16 15 15 15 15 15 14 14 14 15 15 14 13 13 13 13 13 13 13 13 14 14 14 14 14 14 14 14 15 15 15 14 14 14 13
21 20 20 19 18 18 18 17 17 16 15 14 14 14 14 14 15 15 15 14 13 13 13 13 13 13 13 14 14 14 14 14 14 14 14 14 14 14 14 14 14 14 13
20 20 20 20 19 18 18 18 18 16 15 14 14 14 14 14 15 15 15 15 15 14 14 14 14 14 14 14 14 14 14 14 13 13 13 13 13 13 13 13 13 13 13
20 20 20 20 20 19 19 19 18 17 16 14 14 14 14 15 15 15 15 15 15 15 14 14 14 14 14 14 14 14 14 13 13 13 13 13 13 13 13 13 13 13 13
19 19 19 19 19 19 19 19 18 17 16 15 15 14 14 15 15 15 15 15 15 15 14 14 14 14 14 14 13 13 13 13 13 13 13 13 13 12 12 12 12 12 12
19 19 19 19 19 19 19 19 19 18 17 16 16 15 15 15 15 15 15 15 15 15 14 14 14 14 14 14 13 13 13 13 13 13 13 13 12 12 12 13 13 12 12
18 18 19 19 19 19 19 19 19 18 17 17 16 16 15 15 15 15 15 15 15 15 14 14 14 14 14 14 14 13 13 13 13 13 13 12 12 12 12 12 12 12 12
18 18 18 19 19 19 19 19 18 18 17 17 16 16 15 15 15 15 15 15 15 14 14 14 13 14 14 14 13 13 13 13 13 13 12 12 12 12 12 11 11 11 11
17 18 18 18 18 19 19 19 18 18 17 17 16 16 15 15 15 14 14 14 14 14 13 13 13 14 14 13 13 13 13 13 13 13 12 12 11 11 11 11 11 10 10
18 18 18 18 18 18 18 18 18 18 17 17 16 15 15 15 14 14 14 14 14 13 13 13 13 13 13 13 13 13 13 13 13 12 12 11 11 11 10 10 10 10 10
19 18 18 17 17 17 17 18 18 18 18 17 16 16 15 14 14 14 13 13 13 13 13 13 13 13 13 13 13 13 13 13 12 12 11 10 10 10 10 10 10 9 9
19 19 18 17 17 17 17 17 17 17 18 18 17 16 15 15 14 14 13 13 13 13 13 13 13 13 13 13 13 13 13 13 12 11 10 10 10 9 9 9 9 9 9
18 18 18 18 17 17 17 16 16 17 17 18 18 17 16 15 14 14 13 13 13 13 13 13 12 12 12 12 13 13 13 12 12 11 10 10 9 9 9 9 8 8 8
18 18 18 18 17 17 17 17 17 17 17 17 17 17 16 16 15 14 13 13 13 13 13 12 12 12 12 12 12 12 12 12 11 10 10 9 9 9 9 9 8 8 8
17 18 18 18 17 17 17 17 17 17 16 16 16 16 16 16 15 14 13 13 13 13 12 12 12 12 12 12 12 12 12 11 11 10 9 9 9 9 8 8 8 8 8
18 18 18 18 18 17 17 17 17 17 17 16 16 16 16 15 15 14 14 13 12 12 12 12 11 11 11 12 12 12 12 11 10 10 9 8 8 8 8 8 8 8 8
18 18 18 18 18 18 18 18 17 17 17 16 16 15 15 15 15 14 14 13 12 12 12 11 11 11 11 11 12 12 11 11 10 9 9 8 8 8 8 8 8 8 8
17 17 18 18 18 18 18 18 17 17 17 16 16 16 15 15 15 14 13 13 12 12 11 11 11 11 11 11 11 11 11 11 10 9 9 8 7 7 7 7 7 7 7
17 17 17 17 17 17 17 17 17 17 17 17 16 16 15 15 15 14 13 13 12 12 12 11 11 11 11 11 11 11 11 10 9 9 9 8 8 7 7 7 7 7 7
17 17 17 17 17 17 17 17 17 17 17 17 17 17 16 15 15 14 14 13 13 12 11 11 11 11 11 11 11 11 10 10 10 9 9 8 8 7 7 6 6 6 6
16 16 16 17 17 17 17 17 16 16 16 16 16 16 16 16 15 15 14 14 13 12 12 12 11 11 11 11 11 11 11 11 10 9 9 9 8 7 7 6 6 6 6
16 16 16 16 16 16 16 16 16 16 15 16 16 16 16 16 16 15 15 14 14 13 12 12 11 11 11 11 11 11 11 11 10 10 9 9 8 8 7 6 6 5 5
15 15 15 16 16 16 16 16 16 16 16 16 16 16 16 16 16 15 15 15 14 14 13 12 12 11 11 11 11 11 10 10 10 10 9 9 8 7 6 6 5 5 5
14 14 14 15 15 15 16 16 16 16 16 15 15 15 15 15 15 15 15 15 14 14 13 12 12 11 11 11 11 11 10 10 10 9 9 9 8 7 6 5 5 5 4

GEFSSE_850_meantemp_036.txt.gz
Temperature
21 21 19 18 17 16 16 16 16 16 16 16 16 15 15 15 15 15 15 15 15 15 14 14 14 14 14 14 14 14 14 14 15 15 15 15 15 15 15 15 14 13 14
22 21 20 18 17 16 16 16 16 16 16 16 15 15 15 15 15 15 15 15 15 14 14 14 14 14 14 14 14 14 14 14 15 15 15 15 15 15 15 15 14 13 14
21 21 20 19 17 16 16 16 16 16 16 15 15 15 15 14 14 15 15 15 14 14 14 14 14 14 14 14 14 14 14 14 14 14 14 13 14 15 15 14 14 14 13
20 20 20 19 18 17 16 15 15 15 15 15 15 14 14 14 15 15 15 14 14 14 14 14 14 14 14 14 14 14 14 14 14 14 13 13 13 14 14 14 14 13 13
19 19 20 19 18 17 16 15 15 15 15 15 15 14 14 15 15 15 15 14 14 14 14 14 14 14 14 14 14 14 14 14 14 13 13 13 13 14 14 13 13 13 13
18 18 20 19 18 18 17 16 15 15 15 15 15 15 15 15 16 16 16 15 15 14 14 14 14 15 14 14 14 14 14 13 13 12 12 12 12 13 13 13 13 13 13
17 17 18 19 18 18 18 17 16 15 15 15 15 15 15 15 16 16 16 15 15 15 15 15 15 15 14 14 14 14 13 13 12 12 12 12 13 13 13 13 13 13 13
18 17 18 18 18 18 18 17 17 16 15 15 15 15 15 15 16 16 16 15 15 15 15 15 15 14 14 14 14 14 14 13 13 12 12 12 13 13 13 13 13 12 12
17 17 18 18 18 17 18 18 17 16 15 15 14 15 15 15 15 16 15 15 15 15 15 15 14 14 14 14 14 14 14 13 12 12 12 12 12 12 12 12 12 12 12
18 17 17 17 17 17 17 17 17 16 15 15 14 14 15 15 15 15 15 15 15 15 14 14 14 14 14 14 14 14 14 13 12 12 12 12 12 12 12 11 11 11 11
18 17 17 17 17 16 16 17 17 16 15 15 14 14 14 14 14 15 15 15 15 14 14 14 14 14 14 14 13 13 13 13 12 12 12 12 12 11 11 11 11 11 11
18 17 17 17 17 16 16 16 16 16 16 15 14 15 14 13 13 13 14 14 14 14 14 14 14 14 13 13 13 13 13 13 12 11 11 11 11 11 11 11 11 11 11
17 17 17 17 17 17 17 16 16 16 16 15 14 15 14 13 13 13 13 14 14 14 14 14 14 13 13 13 13 13 13 12 11 11 11 11 11 11 11 11 11 11 11
17 17 18 17 17 17 17 16 16 16 16 16 16 15 15 14 14 13 13 13 13 13 14 14 13 13 13 13 13 13 13 12 11 10 10 11 10 10 10 11 10 10 10
16 17 17 17 17 17 17 17 16 16 16 16 16 16 15 15 15 14 13 13 13 13 14 14 13 13 13 13 13 13 12 12 11 10 10 11 10 10 10 10 10 10 10
16 16 17 17 17 17 17 17 17 16 16 16 16 16 15 15 15 14 14 14 13 13 13 13 13 13 13 13 13 12 12 12 11 10 9 10 10 10 10 10 10 10 9
16 16 17 17 17 17 17 17 17 17 16 16 16 16 15 15 15 15 14 14 13 13 13 13 13 13 12 12 12 12 12 11 11 10 10 9 10 10 10 10 10 10 9
17 17 17 17 17 17 17 17 17 17 17 16 16 16 15 15 15 14 14 14 14 13 13 13 13 12 12 12 12 12 12 11 11 10 10 10 9 9 9 10 9 9 9
16 17 17 17 17 17 17 17 17 17 17 17 17 16 16 15 15 15 14 14 14 13 13 13 13 12 12 12 11 11 11 11 10 11 10 10 10 9 9 9 9 9 9
16 16 17 17 17 17 17 17 17 17 17 17 17 17 17 16 16 15 14 14 14 13 13 13 12 12 12 11 11 11 11 10 10 10 9 10 10 9 9 9 9 9 8
16 16 16 17 17 17 16 16 17 17 17 18 18 18 17 17 16 15 15 14 14 14 13 13 12 12 11 11 10 10 10 10 10 10 10 9 9 9 9 9 9 9 8
15 16 16 16 16 16 16 16 16 16 16 17 17 17 17 17 16 16 15 15 15 14 13 13 12 12 11 11 10 10 9 9 10 10 10 9 9 9 9 9 9 9 8
14 14 15 15 16 16 16 16 15 15 15 15 16 16 17 17 16 16 16 15 15 14 14 13 13 12 12 11 11 10 10 10 9 10 10 10 9 9 9 9 9 9 8
13 13 14 14 15 15 15 15 15 14 14 15 16 16 17 16 16 16 15 15 14 14 14 13 13 12 12 11 11 11 11 11 11 10 10 10 10 9 9 9 9 8 8
12 13 13 14 14 14 14 15 14 14 13 14 14 14 15 15 15 15 15 14 14 14 14 13 13 12 12 12 11 11 11 11 11 11 10 10 10 10 9 9 8 8 7
12 12 13 13 13 14 14 14 14 14 14 13 13 13 13 14 14 14 14 14 14 14 14 13 13 12 12 12 11 11 11 11 11 11 10 11 10 10 9 9 8 8 7

GEFSSE_850_meantemp_042.txt.gz
Temperature
22 23 22 21 19 18 17 16 16 16 16 16 16 16 15 15 15 15 15 15 15 15 15 14 14 14 14 14 14 15 15 15 15 15 15 15 16 16 15 14 14 14 14
23 23 22 21 19 17 17 16 16 16 16 16 16 15 15 15 15 15 15 15 15 15 14 14 14 15 15 15 15 15 15 15 15 15 15 15 15 15 15 15 14 14 14
22 22 21 21 19 17 16 16 16 16 16 16 15 15 15 15 15 15 15 15 15 14 14 14 15 15 15 15 15 15 15 14 14 14 13 14 14 15 15 15 14 14 14
20 21 21 20 19 17 16 16 16 16 15 15 15 15 15 15 15 15 15 15 15 14 14 15 15 15 15 15 15 14 14 14 13 13 13 13 14 14 14 14 14 14 14
19 20 21 20 19 17 16 16 15 15 15 15 15 15 15 16 16 15 15 15 14 14 15 15 15 15 15 15 14 14 14 13 13 13 13 13 13 14 14 14 14 14 14
18 19 20 20 18 17 16 16 15 15 15 15 15 15 16 16 16 16 15 15 15 15 15 15 15 15 15 15 14 14 14 13 13 13 13 13 13 14 14 13 13 13 13
17 19 19 19 18 17 16 16 16 15 15 15 15 15 16 16 16 16 16 15 15 15 15 15 15 15 15 15 15 14 14 13 13 13 13 13 13 13 13 13 13 13 13
18 18 19 19 18 17 16 16 16 15 15 15 15 15 16 16 17 16 16 16 16 15 15 15 15 15 15 15 15 14 14 14 13 13 13 13 13 13 13 13 13 13 13
18 18 19 19 19 18 17 16 16 15 15 15 15 15 16 16 17 17 16 16 16 16 15 15 15 15 15 15 15 15 14 14 13 13 13 13 13 13 13 12 12 12 12
17 18 18 19 19 18 18 17 16 16 15 15 15 15 16 16 16 16 16 16 16 16 16 15 15 15 15 15 15 15 14 14 13 13 13 13 13 13 12 12 12 12 12
17 17 17 18 18 18 18 18 17 16 16 15 15 15 16 16 16 16 16 16 16 16 16 16 15 15 15 15 15 15 14 14 13 13 13 13 13 12 12 12 12 12 12
17 16 16 16 17 17 17 17 17 17 16 16 16 16 16 16 16 15 16 16 16 16 16 16 15 15 15 15 15 15 14 13 13 13 13 13 12 12 12 12 12 12 12
17 16 16 16 16 16 16 17 17 17 17 16 16 16 16 15 14 14 15 16 16 16 16 16 15 15 15 15 15 14 14 13 13 13 13 12 12 12 12 12 12 12 12
17 17 16 16 16 16 16 16 16 16 16 16 16 15 16 15 14 14 15 15 16 16 16 16 15 15 15 14 14 14 14 13 13 13 13 12 12 12 12 12 12 12 12
17 16 17 16 16 16 16 15 15 15 15 16 15 15 15 15 14 14 14 14 15 15 15 15 15 14 14 14 14 14 13 13 12 13 13 12 12 12 12 12 12 11 12
17 17 17 17 17 17 16 16 16 15 15 15 15 15 15 14 14 14 14 14 14 14 14 14 14 14 13 14 14 14 13 13 12 12 12 12 12 12 12 11 11 11 11
18 17 17 17 17 17 17 16 16 16 15 15 15 15 15 15 14 14 14 14 14 13 13 13 13 13 13 13 13 13 13 12 12 12 12 12 12 12 12 11 11 11 11
18 18 17 17 17 17 17 17 16 16 16 15 15 15 15 15 14 14 14 14 14 13 13 13 13 13 13 13 13 13 13 12 12 11 11 12 12 12 12 12 11 11 11
18 17 17 17 17 16 16 16 16 16 16 16 16 16 15 15 15 14 14 14 13 13 13 13 12 13 13 13 13 13 12 12 12 11 11 11 12 12 12 12 11 11 11
17 17 17 17 17 16 16 16 15 16 16 16 17 17 16 15 15 14 14 14 13 13 13 12 12 12 12 12 12 12 12 12 12 11 11 11 11 11 12 12 11 11 11
16 16 16 16 16 16 16 16 15 15 16 16 17 17 17 16 15 14 14 14 13 13 13 13 12 12 12 11 11 11 11 11 11 11 11 11 11 11 11 12 11 11 10
15 15 15 15 15 16 15 15 15 15 15 15 15 16 16 16 15 15 14 14 13 13 13 12 12 12 12 11 11 11 10 10 11 11 11 11 11 11 11 11 11 11 10
13 13 14 14 15 15 15 15 15 15 15 15 14 15 15 15 15 14 14 13 13 13 12 12 12 12 12 11 11 11 11 12 11 11 11 11 11 11 11 10 10 10 10
12 12 13 13 14 14 14 14 14 14 14 14 14 14 14 14 14 14 13 13 12 12 12 12 12 12 11 11 11 11 11 12 11 11 11 11 10 10 10 10 10 10 9
12 12 12 13 13 13 13 13 13 13 13 13 13 13 14 14 13 13 13 13 12 12 12 12 12 11 11 11 11 11 10 10 11 11 11 11 10 10 10 9 9 9 9
11 11 12 12 12 12 12 12 12 12 12 12 13 13 13 13 13 13 13 12 12 12 12 12 11 11 11 11 11 10 10 10 10 10 10 11 11 10 9 8 8 8 8

GEFSSE_850_meantemp_048.txt.gz
Temperature
19 20 20 19 18 17 17 17 17 17 16 16 16 15 15 15 15 15 15 15 15 15 15 15 15 15 15 15 15 15 15 15 15 15 16 16 16 16 15 15 14 13 13
21 20 20 19 18 17 17 17 17 17 16 16 16 15 15 15 15 15 15 15 15 15 15 15 15 15 15 15 15 15 15 15 15 15 15 15 15 15 15 15 14 13 13
20 20 20 19 18 17 17 17 17 17 16 16 16 16 15 15 15 15 15 15 15 15 15 15 15 15 15 15 14 14 14 15 15 15 15 15 15 15 15 14 14 14 14
20 20 20 19 18 18 17 17 17 17 16 16 16 16 16 16 15 15 15 15 15 15 15 15 15 15 15 15 14 14 14 15 15 15 14 14 14 14 14 14 14 14 14
20 20 19 19 18 18 17 17 17 16 16 16 17 17 16 16 15 15 15 15 15 15 15 15 15 15 15 15 14 14 14 14 14 14 14 14 14 14 14 14 14 14 13
19 19 19 18 18 18 18 17 17 16 16 17 17 17 17 17 16 16 15 15 15 15 15 16 15 15 15 15 15 14 14 14 14 14 14 14 14 14 14 13 13 13 13
19 19 18 18 18 18 18 17 17 17 16 17 17 17 17 17 17 16 16 16 15 16 16 16 16 15 15 15 15 15 15 15 14 14 14 14 14 13 13 13 13 13 13
18 18 18 17 18 18 17 17 17 17 17 17 17 17 17 17 17 17 17 16 16 16 16 16 16 16 16 15 15 15 15 15 15 14 14 14 14 13 13 13 13 13 13
18 18 18 17 17 17 18 18 17 17 17 17 17 17 17 17 17 17 17 17 16 16 16 16 16 16 16 16 15 15 15 15 15 15 14 14 14 13 13 13 13 13 13
17 17 18 18 18 18 18 18 18 17 17 17 17 17 17 17 18 17 17 17 17 16 16 16 16 16 16 16 16 15 15 15 15 15 15 14 14 13 13 13 13 13 13
17 17 17 18 18 18 18 18 17 17 17 17 18 18 18 18 17 17 17 17 17 16 16 16 16 16 16 16 16 15 15 15 15 15 15 14 14 14 13 13 13 13 13
17 17 17 17 18 18 18 18 18 17 17 17 18 18 18 17 17 17 17 17 17 16 16 16 16 16 16 16 16 15 15 15 15 15 14 14 14 14 14 13 13 13 13
17 17 17 17 17 17 18 18 18 17 17 17 17 17 17 17 17 17 17 17 17 16 16 16 16 16 16 15 15 15 15 15 15 15 14 14 14 14 14 13 13 13 13
17 17 17 17 17 17 17 17 17 17 17 17 17 17 17 17 17 17 17 17 16 16 16 16 16 16 15 15 15 15 15 15 15 14 14 14 13 13 13 13 13 13 13
17 17 17 17 17 17 17 17 17 17 17 17 17 17 16 17 17 17 17 16 16 16 16 16 16 15 15 15 15 15 15 15 14 14 14 14 13 13 13 13 13 13 13
17 17 17 17 17 17 17 17 17 17 17 17 17 16 16 16 16 16 16 16 16 16 15 15 15 15 15 15 15 14 14 14 14 14 14 13 13 13 13 13 13 13 13
17 17 17 17 16 16 16 16 16 16 16 16 16 16 16 16 16 15 15 16 15 15 15 14 14 14 14 14 14 14 14 14 14 14 13 13 13 13 12 12 12 12 12
17 17 17 16 16 16 16 16 16 16 16 16 16 16 16 16 15 15 15 15 15 14 14 14 14 13 13 13 13 13 13 13 13 13 13 13 12 12 12 12 12 12 12
18 17 17 17 16 16 16 16 16 16 16 16 16 16 16 15 15 15 15 15 14 14 14 13 13 13 13 13 12 12 12 12 12 12 13 12 12 12 12 12 12 11 11
17 17 17 17 16 16 16 16 15 15 16 16 16 16 15 15 15 14 14 14 14 13 13 13 13 13 12 12 12 12 12 12 12 12 12 12 12 12 11 11 11 11 11
17 17 17 17 16 16 16 15 15 15 15 15 15 15 15 15 14 14 14 14 14 13 13 13 13 13 12 12 12 12 12 11 11 11 11 11 11 11 11 11 11 11 10
17 17 16 16 16 16 16 15 15 15 15 15 15 15 15 14 14 14 14 14 13 13 13 13 13 13 13 12 12 12 11 11 12 11 11 11 11 11 11 11 10 10 10
16 16 16 15 15 15 15 15 15 15 15 14 14 14 14 14 14 14 13 13 13 13 13 13 13 13 12 12 12 12 11 11 12 12 12 12 11 11 11 10 10 10 9
15 15 14 14 14 14 14 14 14 14 14 14 14 14 14 14 14 13 13 13 13 13 13 12 12 12 12 12 12 12 11 11 11 11 12 12 11 11 11 10 10 9 9
13 13 13 13 13 13 13 13 13 13 13 13 13 13 13 13 13 13 13 13 12 12 12 12 12 12 12 12 12 11 11 11 10 10 10 11 11 11 11 10 10 9 9
12 12 12 12 12 12 12 12 12 12 12 12 12 12 13 13 13 13 12 12 12 12 12 12 12 12 11 11 11 11 11 10 10 10 10 10 10 10 10 10 10 9 9

GEFSSE_850_meantemp_054.txt.gz
Temperature
19 18 17 17 17 17 17 17 16 16 16 16 16 16 16 16 15 15 15 15 15 15 15 16 15 15 15 15 15 15 16 16 16 16 16 16 16 15 15 14 14 13 13
20 18 17 17 17 17 17 16 16 16 16 16 16 16 16 16 16 15 15 15 15 16 16 16 16 15 15 15 15 15 15 16 16 16 16 15 15 15 15 14 14 13 13
20 19 18 17 17 17 17 16 16 16 16 16 16 16 16 16 15 15 15 15 16 16 16 16 16 16 16 15 15 15 15 16 16 16 15 15 15 15 15 14 14 14 13
20 19 18 17 17 17 17 16 16 16 16 16 16 16 16 16 16 15 15 16 16 16 16 16 16 16 16 16 16 15 15 15 15 15 15 15 15 14 14 14 14 14 13
19 19 18 17 17 17 16 16 16 16 16 16 17 16 16 16 16 16 16 16 16 16 16 16 16 16 16 16 16 15 15 15 15 15 15 15 14 14 14 14 14 14 13
19 19 18 17 17 17 16 16 16 16 16 17 17 17 16 16 16 16 16 16 16 16 16 16 16 16 16 16 16 16 15 15 15 15 15 14 14 14 14 14 13 13 13
19 18 17 17 17 17 17 16 17 17 17 17 17 17 16 16 16 16 16 16 16 16 16 16 16 16 16 16 16 15 15 15 15 15 15 14 14 14 14 13 13 13 13
18 18 17 16 16 16 17 17 17 17 17 17 17 17 17 17 17 17 16 16 16 16 16 16 16 16 16 16 15 15 15 15 15 15 14 14 14 14 14 13 13 13 13
17 17 16 16 16 16 16 17 17 17 17 17 17 17 17 17 17 17 17 17 17 16 16 16 16 16 16 15 15 15 15 15 15 15 14 14 14 13 13 13 14 13 13
16 16 16 16 16 16 16 16 16 17 17 17 17 17 17 17 17 17 17 17 17 17 16 16 16 16 16 16 16 16 15 15 15 14 14 14 13 13 13 13 13 13 13
15 15 16 16 16 16 16 16 16 16 17 17 17 17 18 18 17 17 17 17 17 17 16 16 16 16 16 16 16 15 15 15 15 14 14 14 13 13 13 13 13 13 13
15 15 15 16 16 16 16 16 16 16 16 17 17 17 17 17 17 17 17 17 17 17 16 16 16 16 16 16 16 15 15 15 15 15 14 14 13 13 13 13 13 13 13
16 16 16 16 16 16 16 16 16 16 17 17 17 17 17 17 17 17 17 17 17 16 16 16 16 16 16 15 15 15 15 15 15 15 14 14 13 13 13 13 13 13 13
16 16 16 16 16 16 16 16 16 16 17 17 17 17 17 17 17 17 17 17 16 16 16 16 15 15 15 15 15 15 15 15 15 14 14 14 13 13 12 12 12 12 13
17 17 16 16 16 16 16 16 16 16 16 16 16 16 16 16 16 16 16 16 16 16 15 15 15 15 15 15 15 14 14 14 14 14 14 13 13 13 12 12 12 12 12
17 17 16 16 16 16 16 16 16 16 16 16 16 16 16 16 16 16 16 15 15 15 15 15 14 14 14 14 14 14 14 14 14 13 13 13 13 12 12 12 11 11 11
17 16 16 16 16 16 16 16 16 16 15 16 16 16 16 15 15 15 15 15 15 14 14 14 14 14 14 14 13 13 13 13 13 13 13 12 12 12 12 12 11 11 11
17 16 16 16 16 16 16 15 15 15 15 15 15 15 15 15 15 15 15 15 14 14 13 13 13 13 13 13 13 13 12 12 12 12 12 12 12 12 12 11 11 11 11
17 16 16 16 16 16 15 15 15 15 15 15 15 15 15 14 14 14 14 14 14 13 13 13 13 13 13 12 12 12 12 12 12 12 12 12 12 12 12 11 11 11 11
17 17 16 16 16 16 15 15 15 15 15 15 15 15 14 14 14 14 14 14 13 13 13 13 13 13 12 12 12 12 12 12 12 12 12 12 12 12 12 12 11 11 11
17 17 17 16 16 16 16 15 15 15 15 15 15 15 14 14 14 14 14 14 13 13 13 13 13 13 12 12 12 12 12 12 12 12 12 12 12 12 12 12 11 11 11
17 17 17 16 16 16 16 15 15 15 15 15 15 14 14 14 14 14 14 13 13 13 13 13 13 13 12 12 12 11 11 12 12 12 12 12 12 12 12 12 11 11 11
16 16 16 16 16 16 15 15 15 15 15 14 14 14 14 14 14 14 14 13 13 13 13 13 13 12 12 12 12 11 11 11 11 11 11 12 12 12 12 11 11 11 11
16 15 15 15 15 15 15 15 14 14 14 14 14 14 14 14 13 13 13 13 13 13 13 13 12 12 12 11 11 11 11 11 10 10 10 11 11 11 11 11 11 10 10
15 15 15 15 14 14 14 14 14 13 13 13 13 13 13 13 13 13 13 12 12 12 12 12 12 12 11 11 11 10 10 10 10 10 10 10 10 10 10 10 10 10 10
14 14 14 13 13 13 13 13 13 13 12 12 12 12 12 12 12 12 12 12 11 11 11 11 11 11 11 11 10 10 10 10 9 9 9 9 9 9 9 9 9 9 9

GEFSSE_850_meantemp_060.txt.gz
Temperature
18 17 17 16 16 16 16 16 16 16 16 16 16 16 15 15 15 15 15 16 16 16 15 15 15 15 15 16 16 16 16 16 16 16 16 16 15 15 15 14 13 13 14
19 17 17 17 16 16 16 16 16 16 16 16 16 16 15 15 15 15 16 16 16 16 15 15 15 15 16 16 16 16 16 16 16 16 15 15 15 15 14 14 14 14 14
19 17 17 17 16 16 16 16 16 16 16 16 16 16 15 15 15 16 16 16 16 16 16 15 16 16 16 16 16 16 16 16 16 15 15 14 14 14 14 14 14 14 14
19 17 16 16 16 16 16 16 16 16 16 16 16 16 16 15 15 16 16 16 16 16 16 16 16 16 16 16 16 16 16 16 16 15 14 13 13 14 14 14 14 14 14
18 16 16 16 16 16 16 16 16 16 16 16 16 16 16 16 16 16 16 16 17 17 17 16 16 16 16 16 16 16 16 16 16 14 14 14 14 14 14 14 14 14 14
17 16 16 16 16 16 16 16 16 16 16 16 16 16 16 16 16 16 16 17 17 17 17 17 16 16 16 16 16 16 16 16 15 14 14 13 14 14 14 14 14 14 14
16 16 16 16 16 16 16 16 16 16 16 16 16 16 16 16 16 16 16 17 17 17 17 17 17 16 16 16 16 16 16 16 14 14 14 14 14 14 14 14 14 14 14
16 16 15 16 16 16 16 16 16 17 17 16 16 16 16 16 16 16 16 16 17 17 17 17 17 17 16 16 16 16 16 16 15 14 14 14 14 14 14 14 14 14 14
15 15 15 15 15 15 16 16 16 17 17 17 16 16 16 16 16 16 16 16 16 17 17 17 17 17 16 16 16 16 16 16 14 14 14 14 14 14 14 14 14 14 14
15 15 15 15 15 15 15 16 16 16 17 17 17 17 17 16 16 17 16 16 16 16 16 17 17 16 16 16 16 16 16 15 14 14 14 14 14 14 14 14 14 14 14
15 15 15 15 15 15 15 15 15 16 16 17 17 17 17 16 16 16 17 17 16 16 16 16 16 16 16 16 16 16 15 15 14 14 14 14 14 14 14 14 14 14 14
15 15 15 15 15 15 15 15 15 15 16 16 16 16 16 16 16 16 17 17 16 16 16 16 16 16 16 15 15 15 15 15 14 14 14 14 14 14 13 13 13 13 14
15 15 15 15 15 14 14 14 14 14 15 15 15 16 16 16 16 16 16 16 16 16 16 16 15 15 15 15 15 15 15 15 14 14 14 14 14 13 13 13 13 13 13
14 14 14 15 15 14 14 14 14 14 15 15 16 16 15 16 16 15 16 15 16 15 15 15 15 14 15 14 14 14 14 14 14 14 14 14 14 13 13 13 13 13 13
15 15 15 15 14 14 14 14 14 14 15 15 15 16 15 15 15 15 15 15 15 15 15 15 14 14 14 14 14 14 14 13 13 13 13 14 14 13 13 13 12 12 12
15 15 15 15 15 15 15 14 14 14 15 14 15 15 15 15 15 15 15 15 15 15 14 14 14 14 13 13 13 13 13 13 13 13 13 13 13 13 13 13 12 12 12
15 15 15 15 15 15 15 14 14 14 14 15 15 15 15 15 15 15 14 14 14 14 14 14 13 13 13 13 13 13 13 13 13 13 12 13 13 13 13 12 12 12 12
15 15 15 15 15 15 15 15 14 14 14 14 14 14 15 15 14 14 14 14 14 14 14 13 13 13 13 13 13 13 13 13 13 12 12 12 12 12 12 12 12 12 12
16 16 15 15 15 15 15 15 15 15 15 14 14 15 15 15 14 14 14 14 14 14 13 13 13 13 13 13 12 12 12 13 13 13 13 12 12 12 12 12 12 12 12
16 16 16 16 15 15 15 15 15 15 15 15 15 15 15 14 14 14 14 14 14 14 14 13 13 13 13 13 12 12 13 13 13 13 13 12 12 12 12 12 12 12 12
17 16 16 16 16 16 15 15 15 15 15 15 15 15 15 15 14 14 14 14 14 14 13 13 13 13 13 12 12 12 12 12 12 12 12 12 12 12 12 12 12 12 11
17 17 16 16 16 16 16 16 16 15 15 15 15 15 15 15 14 14 14 14 14 13 13 13 13 12 12 12 11 11 11 12 12 12 12 12 12 12 12 12 11 11 11
16 17 17 16 16 16 16 16 15 15 15 15 15 15 15 14 14 14 14 14 13 13 13 13 13 12 12 11 11 11 11 12 12 11 11 11 11 11 11 11 11 11 10
16 16 16 16 16 16 16 15 15 15 15 15 15 14 14 14 14 14 13 13 13 13 13 13 12 12 11 11 11 10 10 10 10 10 10 10 10 10 10 10 10 10 10
16 16 16 16 16 15 15 15 15 15 14 14 14 14 14 13 13 13 13 13 12 12 12 12 12 12 11 11 10 10 10 9 9 9 9 9 9 9 9 9 9 9 9
15 15 15 15 15 15 15 14 14 14 14 13 13 13 13 12 12 12 12 12 12 11 11 11 11 11 10 10 10 9 9 9 9 9 9 9 9 9 8 8 8 8 8